Boise, ID

12:37 AM MDT on June 26, 2017 (GMT -0600)
Boise Air Term

Weather History for KBOI - July, 2012

Change the Weather History Date:

Tuesday, July 24, 2012

  Actual Average Record
Temperature  
Mean Temperature 77 °F 77 °F  
Max Temperature 93 °F 93 °F 108 °F (1933)
Min Temperature 60 °F 62 °F 42 °F (1883)
Degree Days  
Heating Degree Days 0 0  
Month to date heating degree days 0 4  
Since 1 June heating degree days 64 68  
Since 1 July heating degree days 0 4  
Cooling Degree Days 12 12  
Month to date cooling degree days 395 252  
Year to date cooling degree days 594 435  
Since 1 June cooling degree days 535 391  
Growing Degree Days 26 (Base 50)    
Moisture  
Dew Point 41 °F    
Average Humidity 31    
Maximum Humidity 46    
Minimum Humidity 16    
Precipitation  
Precipitation 0.00 in 0.00 in 0.69 in (1913)
Month to date precipitation 0.07 0.26  
Year to date precipitation 8.86 7.19  
Snow  
Snow 0.00 in 0.00 in 0.00 in (2006)
Month to date snowfall 0.0 0.0  
Since 1 July snowfall 0.0 0.0  
Snow Depth 0.00 in    
Sea Level Pressure  
Sea Level Pressure 29.89 in    
Wind  
Wind Speed 4 mph (West)    
Max Wind Speed 13 mph    
Max Gust Speed 15 mph    
Visibility 10 miles    
Events      
T = Trace of Precipitation, MM = Missing Value Source: NWS Daily Summary

Daily Weather History Graph

Daily Weather History Graph

Search for Another Location

Airport or City:

Trip Planner

Search our weather history database for the weather conditions in past years. The results will help you decide how hot, cold, wet, or windy it might be!

Date:

Astronomy

Jul. 24, 2012 Rise Set
Actual Time 6:26 AM MDT 9:15 PM MDT
Civil Twilight 5:52 AM MDT 9:49 PM MDT
Nautical Twilight 5:10 AM MDT 10:31 PM MDT
Astronomical Twilight 4:21 AM MDT 11:20 PM MDT
Moon 12:42 PM MDT (7/24) 11:51 PM MDT (7/24)
Length of Visible Light 15h 56m
Length of Day
14h 49m
Waxing Crescent, 32% of the Moon is Illuminated
Jul 24
Waxing Crescent
Jul 26
First Quarter
Aug 1
Full
Aug 9
Last Quarter
Aug 17
New

Hourly Weather History & Observations

Time (MDT) Temp. Dew Point Humidity Pressure Visibility Wind Dir Wind Speed Gust Speed Precip Events Conditions
12:53 AM 70.0 °F 44.1 °F 39% 29.91 in 10.0 mi SW 6.9 mph - N/A   Clear
1:53 AM 68.0 °F 42.1 °F 39% 29.91 in 10.0 mi West 3.5 mph - N/A   Clear
2:53 AM 66.0 °F 42.1 °F 42% 29.91 in 10.0 mi Calm Calm - N/A   Clear
3:53 AM 64.0 °F 41.0 °F 43% 29.91 in 10.0 mi Calm Calm - N/A   Clear
4:53 AM 62.1 °F 39.9 °F 44% 29.92 in 10.0 mi SSW 3.5 mph - N/A   Clear
5:53 AM 63.0 °F 39.0 °F 41% 29.92 in 10.0 mi Calm Calm - N/A   Clear
6:53 AM 61.0 °F 39.0 °F 44% 29.94 in 9.0 mi SW 3.5 mph - N/A   Clear
7:53 AM 62.1 °F 39.9 °F 44% 29.94 in 10.0 mi West 3.5 mph - N/A   Clear
8:53 AM 63.0 °F 41.0 °F 45% 29.96 in 10.0 mi Calm Calm - N/A   Clear
9:53 AM 64.0 °F 41.0 °F 43% 29.96 in 10.0 mi West 4.6 mph - N/A   Clear
10:53 AM 71.1 °F 43.0 °F 36% 29.95 in 10.0 mi Calm Calm - N/A   Clear
11:53 AM 77.0 °F 42.1 °F 29% 29.95 in 10.0 mi Variable 3.5 mph - N/A   Clear
12:53 PM 80.1 °F 41.0 °F 25% 29.93 in 10.0 mi Variable 4.6 mph - N/A   Clear
1:53 PM 84.0 °F 39.9 °F 21% 29.91 in 10.0 mi NNW 5.8 mph - N/A   Clear
2:53 PM 87.1 °F 39.0 °F 18% 29.88 in 10.0 mi Variable 5.8 mph - N/A   Clear
3:53 PM 90.0 °F 37.9 °F 16% 29.86 in 10.0 mi NW 5.8 mph - N/A   Clear
4:53 PM 91.9 °F 39.9 °F 16% 29.83 in 10.0 mi NNW 8.1 mph - N/A   Clear
5:53 PM 91.9 °F 42.1 °F 18% 29.81 in 10.0 mi WNW 10.4 mph - N/A   Clear
6:53 PM 91.9 °F 39.9 °F 16% 29.80 in 10.0 mi WNW 8.1 mph - N/A   Clear
7:53 PM 90.0 °F 39.0 °F 17% 29.80 in 10.0 mi West 8.1 mph - N/A   Clear
8:53 PM 87.1 °F 39.9 °F 19% 29.81 in 10.0 mi West 5.8 mph - N/A   Clear
9:53 PM 82.9 °F 42.1 °F 24% 29.81 in 10.0 mi Calm Calm - N/A   Clear
10:53 PM 79.0 °F 44.1 °F 29% 29.83 in 10.0 mi South 3.5 mph - N/A   Clear
11:53 PM 75.9 °F 43.0 °F 31% 29.83 in 10.0 mi Calm Calm - N/A   Clear